AL3A Weather Reports


Display with metric or nautical units.
time (UTC)temp
F
wind
direction
speed
MPH
gust
MPH
rain 1hr
in
rain 24hr
in
rain mn
in
humidity
%
barometer
mb
20260901033517 55 0.0 1.0 0.00 0.20 0.20 84 1025.1
20260901032517 56 0.0 0.0 0.00 0.20 0.20 83 1025.6
20260901031517 56 0.0 0.0 0.00 0.20 0.20 83 1024.9
20260901030517 57 0.0 1.0 0.00 0.20 0.20 84 1024.7
20260901025517 57 0.0 3.0 0.00 0.20 0.20 81 1024.6
20260901024517 58 0.0 1.0 0.00 0.20 0.20 84 1024.5
20260901023517 58 0.0 0.0 0.00 0.20 0.20 82 1024.4
20260901022517 59 0.0 0.0 0.00 0.20 0.20 81 1024.6
20260901021517 59 0.0 0.0 0.00 0.20 0.20 80 1024.3
20260901020517 60 0.0 0.0 0.00 0.20 0.20 80 1024.9
20260901015517 61 0.0 0.0 0.00 0.20 0.20 79 1024.8
20260901014517 62 0.0 0.0 0.00 0.20 0.20 78 1025.1
20260901013517 62 0.0 0.0 0.00 0.20 0.20 78 1025.0
20260901012517 62 0.0 1.0 0.00 0.20 0.20 77 1024.9
20260901011517 62 0.0 0.0 0.00 0.20 0.20 75 1025.0
20260901010537 63 0.0 1.0 0.00 0.20 0.20 73 1024.9
20260901005517 63 0.0 0.0 0.00 0.20 0.20 74 1025.4
20260901004517 63 0.0 3.0 0.00 0.20 0.20 72 1025.3
20260901003517 64 68 1.0 4.0 0.00 0.20 0.20 70 1025.8
20260901002517 65 68 1.0 5.0 0.00 0.20 0.20 68 1025.9
20260901001516 68 0.0 4.0 0.00 0.20 0.20 64 1027.1
20260901000516 68 0.0 2.0 0.00 0.20 0.20 64 1027.1
20260831235517 67 0.0 2.0 0.00 0.20 0.20 65 1027.1
20260831234516 67 68 1.0 5.0 0.00 0.20 0.20 64 1027.3
20260831233517 67 0.0 1.0 0.00 0.20 0.20 65 1027.3
20260831232516 66 68 1.0 3.0 0.00 0.20 0.20 67 1027.4
20260831231516 66 0.0 2.0 0.00 0.20 0.20 67 1027.4
20260831230516 67 68 2.0 8.0 0.00 0.20 0.20 65 1027.3
20260831225556 66 68 2.0 7.0 0.00 0.20 0.20 65 1027.2
20260831224516 67 68 2.0 8.0 0.00 0.20 0.20 63 1027.1
20260831223517 67 90 1.0 3.0 0.00 0.20 0.20 63 1027.2
20260831222516 66 0.0 4.0 0.00 0.20 0.20 62 1027.6
20260831221516 64 270 1.0 5.0 0.00 0.20 0.20 67 1027.0
20260831220516 63 293 2.0 7.0 0.00 0.20 0.20 71 1027.5
20260831215516 62 293 2.0 10.0 0.00 0.20 0.20 70 1027.1
20260831214537 62 0 3.0 8.0 0.00 0.20 0.20 71 1027.9
20260831213516 61 293 5.0 10.0 0.00 0.20 0.20 72 1027.4
20260831212516 61 293 4.0 9.0 0.00 0.20 0.20 73 1027.4
20260831211516 61 315 6.0 12.0 0.00 0.20 0.20 74 1028.0
20260831210516 62 0 5.0 12.0 0.00 0.20 0.20 72 1028.6
20260831205516 62 293 3.0 10.0 0.00 0.20 0.20 72 1028.1
20260831204516 61 293 5.0 11.0 0.00 0.20 0.20 75 1029.1
20260831203516 62 293 8.0 15.0 0.00 0.20 0.20 74 1029.5
20260831202516 64 293 4.0 8.0 0.00 0.20 0.20 73 1030.0
20260831201516 65 293 1.0 7.0 0.00 0.20 0.20 72 1029.9
20260831200517 65 225 2.0 5.0 0.00 0.20 0.20 72 1030.0
20260831195516 64 225 1.0 6.0 0.00 0.20 0.20 73 1029.6
20260831194516 64 270 1.0 4.0 0.00 0.20 0.20 74 1029.6
20260831193516 64 270 2.0 6.0 0.00 0.20 0.20 74 1029.8
20260831192516 64 225 1.0 4.0 0.00 0.20 0.20 72 1029.8
20260831191516 64 225 1.0 5.0 0.00 0.20 0.20 72 1029.6
20260831190516 64 248 1.0 4.0 0.00 0.20 0.20 73 1029.6
20260831185516 64 225 1.0 4.0 0.00 0.20 0.20 74 1029.5
20260831184516 63 248 1.0 7.0 0.00 0.20 0.20 76 1029.7
20260831183516 63 203 1.0 4.0 0.00 0.20 0.20 77 1029.5
20260831182537 62 0.0 1.0 0.00 0.20 0.20 77 1029.3
20260831181516 62 0.0 2.0 0.00 0.20 0.20 78 1029.3
20260831180516 62 0.0 2.0 0.00 0.20 0.20 77 1028.9
20260831175516 61 203 1.0 5.0 0.00 0.20 0.20 79 1029.1
20260831174516 61 0.0 2.0 0.00 0.20 0.20 82 1029.2
20260831173516 61 0.0 3.0 0.00 0.20 0.20 79 1029.2
20260831172536 61 135 1.0 4.0 0.00 0.20 0.20 81 1029.3
20260831171516 60 0.0 2.0 0.00 0.20 0.20 83 1029.4
20260831170516 59 68 2.0 4.0 0.00 0.20 0.20 84 1029.1
20260831165516 59 68 2.0 4.0 0.00 0.20 0.20 83 1028.8
20260831164516 59 0.0 1.0 0.00 0.20 0.20 87 1029.1
20260831163536 58 68 1.0 5.0 0.00 0.20 0.20 86 1028.7
20260831162516 58 68 1.0 4.0 0.00 0.20 0.20 85 1028.5
20260831161556 57 0.0 4.0 0.00 0.20 0.20 88 1028.5
20260831160516 57 0.0 1.0 0.00 0.20 0.20 90 1027.9
20260831155516 56 68 1.0 4.0 0.00 0.20 0.20 88 1027.9
20260831154516 55 68 1.0 3.0 0.00 0.20 0.20 90 1028.0
20260831153516 54 68 1.0 4.0 0.00 0.20 0.20 93 1028.1
20260831152516 52 0.0 7.0 0.00 0.20 0.20 97 1027.4
20260831151516 52 0.0 1.0 0.00 0.20 0.20 97 1027.3
20260831150515 51 0.0 5.0 0.00 0.20 0.20 97 1027.0
20260831145515 50 0.0 0.0 0.00 0.20 0.20 97 1026.5
20260831144515 50 0.0 0.0 0.00 0.20 0.20 96 1026.7
20260831143515 50 0.0 0.0 0.00 0.20 0.20 96 1026.6
20260831142535 49 0.0 0.0 0.00 0.20 0.20 96 1026.5
20260831141536 49 0.0 0.0 0.00 0.20 0.20 96 1026.3
20260831140516 48 0.0 0.0 0.00 0.20 0.20 96 1026.2
20260831135516 48 0.0 0.0 0.00 0.20 0.20 95 1025.8
20260831134515 48 0.0 0.0 0.00 0.20 0.20 96 1026.3
20260831133535 48 0.0 1.0 0.00 0.20 0.20 95 1026.0
20260831132515 49 0.0 0.0 0.00 0.20 0.20 96 1025.7
20260831131515 49 0.0 0.0 0.00 0.20 0.20 95 1026.0
20260831130515 49 0.0 0.0 0.00 0.20 0.20 96 1025.9
20260831125515 50 0.0 1.0 0.00 0.20 0.20 96 1025.6
20260831124515 50 0.0 0.0 0.00 0.20 0.20 96 1026.2
20260831123515 50 0.0 0.0 0.00 0.20 0.20 95 1025.9
20260831122517 50 0.0 0.0 0.00 0.20 0.20 95 1025.9
20260831121537 50 0.0 0.0 0.00 0.20 0.20 95 1025.7
20260831120517 51 0.0 0.0 0.00 0.20 0.20 95 1026.1
20260831115517 51 0.0 0.0 0.00 0.20 0.20 95 1026.1
20260831114517 51 0.0 0.0 0.01 0.20 0.20 95 1026.2
20260831113517 52 0.0 0.0 0.01 0.20 0.20 95 1026.2
20260831112517 52 0.0 0.0 0.01 0.20 0.20 95 1026.8
20260831111517 52 0.0 0.0 0.01 0.20 0.20 95 1027.2
20260831110537 52 0.0 0.0 0.01 0.20 0.20 95 1027.3
20260831105537 52 0.0 0.0 0.01 0.20 0.20 95 1027.5
20260831104517 52 0.0 1.0 0.00 0.19 0.19 95 1027.7
20260831103517 52 0.0 0.0 0.02 0.19 0.19 94 1027.5
20260831102517 53 0.0 1.0 0.05 0.19 0.19 95 1027.6
20260831101517 53 0.0 2.0 0.07 0.19 0.19 95 1028.0
20260831100517 53 0.0 3.0 0.11 0.19 0.19 94 1027.7
20260831095517 53 68 6.0 13.0 0.14 0.19 0.19 94 1027.2
20260831094517 53 68 9.0 15.0 0.14 0.18 0.18 93 1027.4
20260831093517 54 68 5.0 13.0 0.13 0.16 0.16 93 1029.1
20260831092517 54 68 4.0 11.0 0.12 0.14 0.14 93 1029.6
20260831091517 54 68 3.0 10.0 0.11 0.12 0.12 93 1029.5
20260831090517 55 225 5.0 20.0 0.07 0.08 0.08 92 1029.7
20260831085517 56 203 2.0 12.0 0.04 0.05 0.05 92 1029.5
20260831084537 56 180 6.0 19.0 0.04 0.04 0.04 91 1029.3
20260831083517 57 203 6.0 20.0 0.03 0.03 0.03 89 1029.4
20260831082517 60 225 4.0 16.0 0.02 0.02 0.02 89 1030.6
20260831081516 60 158 1.0 7.0 0.01 0.01 0.01 89 1030.2
20260831080517 60 0.0 3.0 0.01 0.01 0.01 92 1030.1
20260831075537 59 0.0 3.0 0.01 0.01 0.01 92 1029.5
20260831074517 59 0.0 0.0 0.00 0.00 0.00 90 1029.6
20260831073516 59 0.0 0.0 0.00 0.00 0.00 89 1029.7
20260831072516 59 0.0 0.0 0.00 0.00 0.00 89 1029.8
20260831071516 59 0.0 0.0 0.00 0.00 0.00 88 1029.8
20260831070516 60 0.0 0.0 0.00 0.00 0.00 87 1029.7
20260831065516 60 0.0 0.0 0.00 0.00 0.00 87 1029.6
20260831064515 59 0.0 1.0 0.00 0.00 0.00 87 1028.9
20260831063515 59 0.0 0.0 0.00 0.00 0.00 87 1028.7
20260831062515 60 0.0 0.0 0.00 0.00 0.00 86 1029.2
20260831061515 60 0.0 0.0 0.00 0.00 0.00 85 1028.9
20260831060517 61 0.0 0.0 0.00 0.00 0.00 84 1028.8
20260831055517 60 0.0 1.0 0.00 0.00 0.00 84 1028.6
20260831054517 60 0.0 0.0 0.00 0.00 0.00 85 1028.7
20260831053517 59 0.0 1.0 0.00 0.00 0.00 86 1028.8
20260831052537 59 0.0 1.0 0.00 0.00 0.00 86 1028.7
20260831051517 60 0.0 0.0 0.00 0.00 0.00 84 1028.1
20260831050557 61 0.0 0.0 0.00 0.00 0.00 82 1028.8
20260831045517 62 0.0 0.0 0.00 0.00 0.00 82 1029.1
20260831044517 61 0.0 0.0 0.00 0.00 0.00 82 1028.9
20260831043517 61 0.0 1.0 0.00 0.00 0.00 83 1028.9
20260831042517 61 0.0 0.0 0.00 0.00 0.00 83 1029.3
20260831041517 62 0.0 0.0 0.00 0.00 0.00 81 1028.9
20260831040517 62 0.0 0.0 0.00 0.00 0.00 81 1028.9
20260831035517 63 0.0 0.0 0.00 0.00 0.00 80 1029.0
20260831034517 63 0.0 0.0 0.00 0.00 0.00 78 1028.4